Time,TemperatureF,DewpointF,PressureIn,WindDirection,WindDirectionDegrees,WindSpeedMPH,WindSpeedGustMPH,Humidity,HourlyPrecipIn,Conditions,Clouds,dailyrainin,SoftwareType,DateUTC
2013-05-16 00:01:00,72.4,12.8,30.01,North,0,0.0,0.0,1,0.00,,,0.00,WUHU216HW,2013-05-16 04:01:00,
2013-05-16 00:02:00,72.4,12.8,30.01,North,0,0.0,0.0,1,0.00,,,0.00,WUHU216HW,2013-05-16 04:02:00,
2013-05-16 00:07:00,72.4,12.8,30.00,North,0,0.0,0.0,1,0.00,,,0.00,WUHU216HW,2013-05-16 04:07:00,
2013-05-16 00:12:00,72.4,12.8,30.01,North,0,0.0,0.0,1,0.00,,,0.00,WUHU216HW,2013-05-16 04:12:00,
2013-05-16 00:17:00,72.4,12.8,30.01,North,0,0.0,0.0,1,0.00,,,0.00,WUHU216HW,2013-05-16 04:17:00,
2013-05-16 00:40:00,72.4,12.8,29.99,North,0,0.0,0.0,1,0.00,,,0.00,WUHU216HW,2013-05-16 04:40:00,
2013-05-16 00:45:00,72.4,12.8,29.99,North,0,0.0,0.0,1,0.00,,,0.00,WUHU216HW,2013-05-16 04:45:00,
2013-05-16 01:00:00,72.4,12.8,29.99,North,0,0.0,0.0,1,0.00,,,0.00,WUHU216HW,2013-05-16 05:00:00,
2013-05-16 01:05:00,72.2,12.7,29.99,North,0,0.0,0.0,1,0.00,,,0.00,WUHU216HW,2013-05-16 05:05:00,
2013-05-16 01:10:00,72.2,12.7,29.99,North,0,0.0,0.0,1,0.00,,,0.00,WUHU216HW,2013-05-16 05:10:00,
2013-05-16 01:15:00,72.2,12.7,29.99,North,0,0.0,0.0,1,0.00,,,0.00,WUHU216HW,2013-05-16 05:15:00,
2013-05-16 01:20:00,72.2,12.7,29.99,North,0,0.0,0.0,1,0.00,,,0.00,WUHU216HW,2013-05-16 05:20:00,
2013-05-16 01:25:00,72.2,12.7,29.99,North,0,0.0,0.0,1,0.00,,,0.00,WUHU216HW,2013-05-16 05:25:00,
2013-05-16 01:31:00,72.2,12.7,29.99,North,0,0.0,0.0,1,0.00,,,0.00,WUHU216HW,2013-05-16 05:31:00,
2013-05-16 01:36:00,72.2,12.7,29.99,North,0,0.0,0.0,1,0.00,,,0.00,WUHU216HW,2013-05-16 05:36:00,
2013-05-16 01:41:00,72.2,12.7,29.98,North,0,0.0,0.0,1,0.00,,,0.00,WUHU216HW,2013-05-16 05:41:00,
2013-05-16 01:46:00,72.0,12.5,29.99,North,0,0.0,0.0,1,0.00,,,0.00,WUHU216HW,2013-05-16 05:46:00,
2013-05-16 01:51:00,72.2,12.7,29.98,North,0,0.0,0.0,1,0.00,,,0.00,WUHU216HW,2013-05-16 05:51:00,
2013-05-16 01:56:00,72.2,12.7,29.98,North,0,0.0,0.0,1,0.00,,,0.00,WUHU216HW,2013-05-16 05:56:00,
2013-05-16 02:01:00,72.2,12.7,29.98,North,0,0.0,0.0,1,0.00,,,0.00,WUHU216HW,2013-05-16 06:01:00,
2013-05-16 02:06:00,72.2,12.7,29.98,North,0,0.0,0.0,1,0.00,,,0.00,WUHU216HW,2013-05-16 06:06:00,
2013-05-16 02:12:00,72.0,12.5,29.98,North,0,0.0,0.0,1,0.00,,,0.00,WUHU216HW,2013-05-16 06:12:00,
2013-05-16 02:17:00,72.0,12.5,29.98,North,0,0.0,0.0,1,0.00,,,0.00,WUHU216HW,2013-05-16 06:17:00,
2013-05-16 02:22:00,72.0,12.5,29.98,North,0,0.0,0.0,1,0.00,,,0.00,WUHU216HW,2013-05-16 06:22:00,
2013-05-16 02:27:00,72.0,12.5,29.98,North,0,0.0,0.0,1,0.00,,,0.00,WUHU216HW,2013-05-16 06:27:00,
2013-05-16 02:32:00,72.0,12.5,29.98,North,0,0.0,0.0,1,0.00,,,0.00,WUHU216HW,2013-05-16 06:32:00,
2013-05-16 02:37:00,72.0,12.5,29.98,North,0,0.0,0.0,1,0.00,,,0.00,WUHU216HW,2013-05-16 06:37:00,
2013-05-16 02:42:00,72.0,12.5,29.98,North,0,0.0,0.0,1,0.00,,,0.00,WUHU216HW,2013-05-16 06:42:00,
2013-05-16 02:47:00,72.0,12.5,29.98,North,0,0.0,0.0,1,0.00,,,0.00,WUHU216HW,2013-05-16 06:47:00,
2013-05-16 02:53:00,71.8,12.4,29.98,North,0,0.0,0.0,1,0.00,,,0.00,WUHU216HW,2013-05-16 06:53:00,
2013-05-16 02:58:00,71.8,12.4,29.98,North,0,0.0,0.0,1,0.00,,,0.00,WUHU216HW,2013-05-16 06:58:00,
2013-05-16 03:03:00,71.8,12.4,29.98,North,0,0.0,0.0,1,0.00,,,0.00,WUHU216HW,2013-05-16 07:03:00,
2013-05-16 03:08:00,72.0,12.5,29.98,North,0,0.0,0.0,1,0.00,,,0.00,WUHU216HW,2013-05-16 07:08:00,
2013-05-16 03:13:00,72.0,12.5,29.98,North,0,0.0,0.0,1,0.00,,,0.00,WUHU216HW,2013-05-16 07:13:00,
2013-05-16 03:18:00,71.8,12.4,29.97,North,0,0.0,0.0,1,0.00,,,0.00,WUHU216HW,2013-05-16 07:18:00,
2013-05-16 03:23:00,71.8,12.4,29.97,North,0,0.0,0.0,1,0.00,,,0.00,WUHU216HW,2013-05-16 07:23:00,
2013-05-16 03:28:00,71.8,12.4,29.97,North,0,0.0,0.0,1,0.00,,,0.00,WUHU216HW,2013-05-16 07:28:00,
2013-05-16 03:34:00,71.8,12.4,29.97,North,0,0.0,0.0,1,0.00,,,0.00,WUHU216HW,2013-05-16 07:34:00,
2013-05-16 03:39:00,71.8,12.4,29.97,North,0,0.0,0.0,1,0.00,,,0.00,WUHU216HW,2013-05-16 07:39:00,
2013-05-16 03:44:00,71.8,12.4,29.97,North,0,0.0,0.0,1,0.00,,,0.00,WUHU216HW,2013-05-16 07:44:00,
2013-05-16 03:49:00,71.6,12.2,29.97,North,0,0.0,0.0,1,0.00,,,0.00,WUHU216HW,2013-05-16 07:49:00,
2013-05-16 03:54:00,71.6,12.2,29.97,North,0,0.0,0.0,1,0.00,,,0.00,WUHU216HW,2013-05-16 07:54:00,
2013-05-16 03:59:00,71.6,12.2,29.97,North,0,0.0,0.0,1,0.00,,,0.00,WUHU216HW,2013-05-16 07:59:00,
2013-05-16 04:04:00,71.6,12.2,29.97,North,0,0.0,0.0,1,0.00,,,0.00,WUHU216HW,2013-05-16 08:04:00,
2013-05-16 04:09:00,71.6,12.2,29.97,North,0,0.0,0.0,1,0.00,,,0.00,WUHU216HW,2013-05-16 08:09:00,
2013-05-16 04:14:00,71.6,12.2,29.97,North,0,0.0,0.0,1,0.00,,,0.00,WUHU216HW,2013-05-16 08:14:00,
2013-05-16 04:19:00,71.5,12.1,29.97,North,0,0.0,0.0,1,0.00,,,0.00,WUHU216HW,2013-05-16 08:19:00,
2013-05-16 04:25:00,71.5,12.1,29.97,North,0,0.0,0.0,1,0.00,,,0.00,WUHU216HW,2013-05-16 08:25:00,
2013-05-16 04:30:00,71.5,12.1,29.97,North,0,0.0,0.0,1,0.00,,,0.00,WUHU216HW,2013-05-16 08:30:00,
2013-05-16 04:35:00,71.5,12.1,29.97,North,0,0.0,0.0,1,0.00,,,0.00,WUHU216HW,2013-05-16 08:35:00,
2013-05-16 04:40:00,71.3,12.0,29.97,North,0,0.0,0.0,1,0.00,,,0.00,WUHU216HW,2013-05-16 08:40:00,
2013-05-16 04:45:00,71.3,12.0,29.97,North,0,0.0,0.0,1,0.00,,,0.00,WUHU216HW,2013-05-16 08:45:00,
2013-05-16 04:50:00,71.3,12.0,29.97,North,0,0.0,0.0,1,0.00,,,0.00,WUHU216HW,2013-05-16 08:50:00,
2013-05-16 04:55:00,71.3,12.0,29.97,North,0,0.0,0.0,1,0.00,,,0.00,WUHU216HW,2013-05-16 08:55:00,
2013-05-16 05:01:00,71.1,11.8,29.97,North,0,0.0,0.0,1,0.00,,,0.00,WUHU216HW,2013-05-16 09:01:00,
2013-05-16 05:06:00,71.1,11.8,29.97,North,0,0.0,0.0,1,0.00,,,0.00,WUHU216HW,2013-05-16 09:06:00,
2013-05-16 05:11:00,71.1,11.8,29.97,North,0,0.0,0.0,1,0.00,,,0.00,WUHU216HW,2013-05-16 09:11:00,
2013-05-16 05:36:00,70.9,11.7,29.97,North,0,0.0,0.0,1,0.00,,,0.00,WUHU216HW,2013-05-16 09:36:00,
2013-05-16 05:41:00,70.9,11.7,29.97,North,0,0.0,0.0,1,0.00,,,0.00,WUHU216HW,2013-05-16 09:41:00,
2013-05-16 06:00:00,70.7,11.5,29.97,North,0,0.0,0.0,1,0.00,,,0.00,WUHU216HW,2013-05-16 10:00:00,
2013-05-16 06:05:00,70.7,11.5,29.97,North,0,0.0,0.0,1,0.00,,,0.00,WUHU216HW,2013-05-16 10:05:00,
2013-05-16 06:10:00,70.7,11.5,29.97,North,0,0.0,0.0,1,0.00,,,0.00,WUHU216HW,2013-05-16 10:10:00,
2013-05-16 06:15:00,70.7,11.5,29.97,North,0,0.0,0.0,1,0.00,,,0.00,WUHU216HW,2013-05-16 10:15:00,
2013-05-16 06:20:00,70.9,11.7,29.97,North,0,0.0,0.0,1,0.00,,,0.00,WUHU216HW,2013-05-16 10:20:00,
2013-05-16 06:25:00,70.9,11.7,29.97,North,0,0.0,0.0,1,0.00,,,0.00,WUHU216HW,2013-05-16 10:25:00,
2013-05-16 06:31:00,70.7,11.5,29.97,North,0,0.0,0.0,1,0.00,,,0.00,WUHU216HW,2013-05-16 10:31:00,
2013-05-16 06:36:00,70.7,11.5,29.97,North,0,0.0,0.0,1,0.00,,,0.00,WUHU216HW,2013-05-16 10:36:00,
2013-05-16 06:41:00,70.9,11.7,29.98,North,0,0.0,0.0,1,0.00,,,0.00,WUHU216HW,2013-05-16 10:41:00,
2013-05-16 06:46:00,71.1,11.8,29.98,North,0,0.0,0.0,1,0.00,,,0.00,WUHU216HW,2013-05-16 10:46:00,
2013-05-16 06:51:00,71.1,11.8,29.97,North,0,0.0,0.0,1,0.00,,,0.00,WUHU216HW,2013-05-16 10:51:00,
2013-05-16 06:56:00,71.3,12.0,29.98,North,0,0.0,0.0,1,0.00,,,0.00,WUHU216HW,2013-05-16 10:56:00,
2013-05-16 07:01:00,71.5,12.1,29.98,North,0,0.0,0.0,1,0.00,,,0.00,WUHU216HW,2013-05-16 11:01:00,
2013-05-16 07:06:00,71.5,12.1,29.98,North,0,0.0,0.0,1,0.00,,,0.00,WUHU216HW,2013-05-16 11:06:00,
2013-05-16 07:12:00,71.6,12.2,29.98,North,0,0.0,0.0,1,0.00,,,0.00,WUHU216HW,2013-05-16 11:12:00,
2013-05-16 07:17:00,71.8,12.4,29.98,North,0,0.0,0.0,1,0.00,,,0.00,WUHU216HW,2013-05-16 11:17:00,
2013-05-16 07:22:00,71.8,12.4,29.98,North,0,0.0,0.0,1,0.00,,,0.00,WUHU216HW,2013-05-16 11:22:00,
2013-05-16 07:27:00,72.0,12.5,29.98,North,0,0.0,0.0,1,0.00,,,0.00,WUHU216HW,2013-05-16 11:27:00,
2013-05-16 07:32:00,72.2,12.7,29.99,North,0,0.0,0.0,1,0.00,,,0.00,WUHU216HW,2013-05-16 11:32:00,
2013-05-16 07:37:00,72.4,12.8,29.99,North,0,0.0,0.0,1,0.00,,,0.00,WUHU216HW,2013-05-16 11:37:00,
2013-05-16 07:42:00,72.5,13.0,29.99,North,0,0.0,0.0,1,0.00,,,0.00,WUHU216HW,2013-05-16 11:42:00,
2013-05-16 07:47:00,72.7,13.2,29.99,North,0,0.0,0.0,1,0.00,,,0.00,WUHU216HW,2013-05-16 11:47:00,
2013-05-16 07:52:00,73.1,13.4,29.99,North,0,0.0,0.0,1,0.00,,,0.00,WUHU216HW,2013-05-16 11:52:00,
2013-05-16 07:57:00,74.3,14.3,29.99,North,0,0.0,0.0,1,0.00,,,0.00,WUHU216HW,2013-05-16 11:57:00,
2013-05-16 08:03:00,75.4,15.1,29.99,North,0,0.0,0.0,1,0.00,,,0.00,WUHU216HW,2013-05-16 12:03:00,
2013-05-16 08:08:00,75.8,15.4,30.00,North,0,0.0,0.0,1,0.00,,,0.00,WUHU216HW,2013-05-16 12:08:00,
2013-05-16 08:13:00,76.1,15.7,30.00,North,0,0.0,0.0,1,0.00,,,0.00,WUHU216HW,2013-05-16 12:13:00,
2013-05-16 08:18:00,76.5,15.9,30.00,North,0,0.0,0.0,1,0.00,,,0.00,WUHU216HW,2013-05-16 12:18:00,
2013-05-16 08:23:00,76.7,16.1,30.00,North,0,0.0,0.0,1,0.00,,,0.00,WUHU216HW,2013-05-16 12:23:00,
2013-05-16 08:28:00,76.7,16.1,29.99,North,0,0.0,0.0,1,0.00,,,0.00,WUHU216HW,2013-05-16 12:28:00,
2013-05-16 08:33:00,76.9,16.2,30.00,North,0,0.0,0.0,1,0.00,,,0.00,WUHU216HW,2013-05-16 12:33:00,
2013-05-16 08:38:00,77.0,16.4,30.00,North,0,0.0,0.0,1,0.00,,,0.00,WUHU216HW,2013-05-16 12:38:00,
2013-05-16 08:44:00,76.7,16.1,30.00,North,0,0.0,0.0,3,0.00,,,0.00,WUHU216HW,2013-05-16 12:44:00,
2013-05-16 08:49:00,76.1,15.7,30.00,North,0,0.0,0.0,1,0.00,,,0.00,WUHU216HW,2013-05-16 12:49:00,
2013-05-16 08:54:00,76.1,15.7,30.00,North,0,0.0,0.0,1,0.00,,,0.00,WUHU216HW,2013-05-16 12:54:00,
2013-05-16 08:59:00,76.3,15.9,30.00,North,0,0.0,0.0,1,0.00,,,0.00,WUHU216HW,2013-05-16 12:59:00,
2013-05-16 09:04:00,76.9,16.2,30.01,North,0,0.0,0.0,5,0.00,,,0.00,WUHU216HW,2013-05-16 13:04:00,
2013-05-16 09:09:00,77.2,16.5,30.00,North,0,0.0,0.0,5,0.00,,,0.00,WUHU216HW,2013-05-16 13:09:00,
2013-05-16 09:14:00,77.0,16.4,30.00,North,0,0.0,0.0,10,0.00,,,0.00,WUHU216HW,2013-05-16 13:14:00,
2013-05-16 09:19:00,77.4,18.3,30.00,North,0,0.0,0.0,11,0.00,,,0.00,WUHU216HW,2013-05-16 13:19:00,
2013-05-16 09:24:00,77.6,21.8,30.00,North,0,0.0,0.0,13,0.00,,,0.00,WUHU216HW,2013-05-16 13:24:00,
2013-05-16 09:30:00,77.8,25.2,30.00,North,0,0.0,0.0,15,0.00,,,0.00,WUHU216HW,2013-05-16 13:30:00,
2013-05-16 09:35:00,78.1,22.2,30.00,North,0,0.0,0.0,13,0.00,,,0.00,WUHU216HW,2013-05-16 13:35:00,
2013-05-16 09:40:00,78.5,29.1,30.00,North,0,0.0,0.0,17,0.00,,,0.00,WUHU216HW,2013-05-16 13:40:00,
2013-05-16 09:45:00,79.2,34.8,30.00,North,0,0.0,0.0,20,0.00,,,0.00,WUHU216HW,2013-05-16 13:45:00,
2013-05-16 09:50:00,79.0,39.8,30.00,North,0,0.0,0.0,25,0.00,,,0.00,WUHU216HW,2013-05-16 13:50:00,
2013-05-16 09:55:00,78.7,41.6,30.00,North,0,0.0,0.0,27,0.00,,,0.00,WUHU216HW,2013-05-16 13:55:00,
2013-05-16 10:00:00,79.0,39.8,30.00,North,0,0.0,0.0,25,0.00,,,0.00,WUHU216HW,2013-05-16 14:00:00,
2013-05-16 10:05:00,78.8,44.8,30.00,North,0,0.0,0.0,30,0.00,,,0.00,WUHU216HW,2013-05-16 14:05:00,
2013-05-16 10:10:00,79.2,45.2,30.00,North,0,0.0,0.0,30,0.00,,,0.00,WUHU216HW,2013-05-16 14:10:00,
2013-05-16 10:16:00,79.6,47.8,30.00,North,0,0.0,0.0,33,0.00,,,0.00,WUHU216HW,2013-05-16 14:16:00,
2013-05-16 10:21:00,79.9,48.2,30.00,North,0,0.0,0.0,33,0.00,,,0.00,WUHU216HW,2013-05-16 14:21:00,
2013-05-16 10:26:00,80.3,47.7,30.00,North,0,0.0,0.0,32,0.00,,,0.00,WUHU216HW,2013-05-16 14:26:00,
2013-05-16 10:31:00,80.1,48.2,30.01,North,0,0.0,0.0,33,0.00,,,0.00,WUHU216HW,2013-05-16 14:31:00,
2013-05-16 10:36:00,79.9,48.9,30.01,North,0,0.0,0.0,34,0.00,,,0.00,WUHU216HW,2013-05-16 14:36:00,
2013-05-16 10:41:00,79.9,48.9,30.01,North,0,0.0,0.0,34,0.00,,,0.00,WUHU216HW,2013-05-16 14:41:00,
2013-05-16 10:46:00,79.6,47.8,30.01,North,0,0.0,0.0,33,0.00,,,0.00,WUHU216HW,2013-05-16 14:46:00,
2013-05-16 10:51:00,79.6,46.3,30.01,North,0,0.0,0.0,31,0.00,,,0.00,WUHU216HW,2013-05-16 14:51:00,
2013-05-16 10:57:00,79.6,45.5,30.01,North,0,0.0,0.0,30,0.00,,,0.00,WUHU216HW,2013-05-16 14:57:00,
2013-05-16 11:02:00,79.6,45.5,30.01,North,0,0.0,0.0,30,0.00,,,0.00,WUHU216HW,2013-05-16 15:02:00,
2013-05-16 11:07:00,79.7,45.6,30.01,North,0,0.0,0.0,30,0.00,,,0.00,WUHU216HW,2013-05-16 15:07:00,
2013-05-16 11:12:00,79.7,46.5,30.01,North,0,0.0,0.0,31,0.00,,,0.00,WUHU216HW,2013-05-16 15:12:00,
2013-05-16 11:17:00,79.7,46.5,30.02,North,0,0.0,0.0,31,0.00,,,0.00,WUHU216HW,2013-05-16 15:17:00,
2013-05-16 11:22:00,79.9,47.3,30.02,North,0,0.0,0.0,32,0.00,,,0.00,WUHU216HW,2013-05-16 15:22:00,
2013-05-16 11:27:00,79.9,47.3,30.02,North,0,0.0,0.0,32,0.00,,,0.00,WUHU216HW,2013-05-16 15:27:00,
2013-05-16 11:28:00,79.9,48.2,30.02,North,0,0.0,0.0,33,0.00,,,0.00,WUHU216HW,2013-05-16 15:28:00,
2013-05-16 11:33:00,79.9,48.2,30.02,North,0,0.0,0.0,33,0.00,,,0.00,WUHU216HW,2013-05-16 15:33:00,
2013-05-16 11:38:00,79.9,48.2,30.02,North,0,0.0,0.0,33,0.00,,,0.00,WUHU216HW,2013-05-16 15:38:00,
2013-05-16 12:00:00,80.1,47.5,30.03,North,0,0.0,0.0,32,0.00,,,0.00,WUHU216HW,2013-05-16 16:00:00,
2013-05-16 12:05:00,80.1,47.5,30.03,North,0,0.0,0.0,32,0.00,,,0.00,WUHU216HW,2013-05-16 16:05:00,
2013-05-16 13:00:00,81.5,55.6,30.01,North,0,0.0,0.0,41,0.00,,,0.00,WUHU216HW,2013-05-16 17:00:00,
2013-05-16 13:05:00,81.5,55.6,30.01,North,0,0.0,0.0,41,0.00,,,0.00,WUHU216HW,2013-05-16 17:05:00,
2013-05-16 14:00:00,85.1,63.9,30.00,North,0,0.0,0.0,49,0.00,,,0.00,WUHU216HW,2013-05-16 18:00:00,
2013-05-16 14:05:00,85.0,63.7,30.00,North,0,0.0,0.0,49,0.00,,,0.00,WUHU216HW,2013-05-16 18:05:00,
2013-05-16 14:10:00,84.8,63.5,30.00,North,0,0.0,0.0,49,0.00,,,0.00,WUHU216HW,2013-05-16 18:10:00,
2013-05-16 14:15:00,84.8,63.5,30.00,North,0,0.0,0.0,49,0.00,,,0.00,WUHU216HW,2013-05-16 18:15:00,
2013-05-16 15:05:00,83.3,60.3,29.99,North,0,0.0,0.0,46,0.00,,,0.00,WUHU216HW,2013-05-16 19:05:00,
2013-05-16 15:10:00,83.2,58.3,29.99,North,0,0.0,0.0,43,0.00,,,0.00,WUHU216HW,2013-05-16 19:10:00,
2013-05-16 15:15:00,83.9,59.6,29.99,North,0,0.0,0.0,44,0.00,,,0.00,WUHU216HW,2013-05-16 19:15:00,
2013-05-16 15:20:00,85.0,61.8,29.98,North,0,0.0,0.0,46,0.00,,,0.00,WUHU216HW,2013-05-16 19:20:00,
2013-05-16 15:25:00,85.3,63.5,29.98,North,0,0.0,0.0,48,0.00,,,0.00,WUHU216HW,2013-05-16 19:25:00,
2013-05-16 15:30:00,84.2,62.5,29.98,North,0,0.0,0.0,48,0.00,,,0.00,WUHU216HW,2013-05-16 19:30:00,
2013-05-16 15:36:00,83.5,60.5,29.97,North,0,0.0,0.0,46,0.00,,,0.00,WUHU216HW,2013-05-16 19:36:00,
2013-05-16 15:41:00,83.2,59.6,29.97,North,0,0.0,0.0,45,0.00,,,0.00,WUHU216HW,2013-05-16 19:41:00,
2013-05-16 15:46:00,82.8,58.0,29.98,North,0,0.0,0.0,43,0.00,,,0.00,WUHU216HW,2013-05-16 19:46:00,
2013-05-16 15:51:00,82.8,58.0,29.97,North,0,0.0,0.0,43,0.00,,,0.00,WUHU216HW,2013-05-16 19:51:00,
2013-05-16 15:56:00,82.8,58.6,29.98,North,0,0.0,0.0,44,0.00,,,0.00,WUHU216HW,2013-05-16 19:56:00,
2013-05-16 16:01:00,82.6,57.8,29.97,North,0,0.0,0.0,43,0.00,,,0.00,WUHU216HW,2013-05-16 20:01:00,
2013-05-16 16:06:00,82.3,56.9,29.98,North,0,0.0,0.0,42,0.00,,,0.00,WUHU216HW,2013-05-16 20:06:00,
2013-05-16 16:11:00,82.1,57.3,29.98,North,0,0.0,0.0,43,0.00,,,0.00,WUHU216HW,2013-05-16 20:11:00,
2013-05-16 16:16:00,82.4,59.5,29.98,North,0,0.0,0.0,46,0.00,,,0.00,WUHU216HW,2013-05-16 20:16:00,
2013-05-16 16:22:00,82.4,59.5,29.97,North,0,0.0,0.0,46,0.00,,,0.00,WUHU216HW,2013-05-16 20:22:00,
2013-05-16 16:27:00,82.4,59.5,29.97,North,0,0.0,0.0,46,0.00,,,0.00,WUHU216HW,2013-05-16 20:27:00,
2013-05-16 16:32:00,82.1,58.0,29.97,North,0,0.0,0.0,44,0.00,,,0.00,WUHU216HW,2013-05-16 20:32:00,
2013-05-16 16:37:00,82.1,57.3,29.97,North,0,0.0,0.0,43,0.00,,,0.00,WUHU216HW,2013-05-16 20:37:00,
2013-05-16 16:42:00,81.7,56.3,29.97,North,0,0.0,0.0,42,0.00,,,0.00,WUHU216HW,2013-05-16 20:42:00,
2013-05-16 16:47:00,81.2,55.3,29.97,North,0,0.0,0.0,41,0.00,,,0.00,WUHU216HW,2013-05-16 20:47:00,
2013-05-16 16:52:00,81.0,55.7,29.97,North,0,0.0,0.0,42,0.00,,,0.00,WUHU216HW,2013-05-16 20:52:00,
2013-05-16 16:57:00,80.8,54.4,29.97,North,0,0.0,0.0,40,0.00,,,0.00,WUHU216HW,2013-05-16 20:57:00,
2013-05-16 17:03:00,80.5,54.0,29.97,North,0,0.0,0.0,40,0.00,,,0.00,WUHU216HW,2013-05-16 21:03:00,
2013-05-16 17:08:00,80.3,53.1,29.97,North,0,0.0,0.0,39,0.00,,,0.00,WUHU216HW,2013-05-16 21:08:00,
2013-05-16 17:13:00,79.7,50.3,29.97,North,0,0.0,0.0,36,0.00,,,0.00,WUHU216HW,2013-05-16 21:13:00,
2013-05-16 17:18:00,79.6,49.3,29.97,North,0,0.0,0.0,35,0.00,,,0.00,WUHU216HW,2013-05-16 21:18:00,
2013-05-16 17:23:00,79.4,47.6,29.97,North,0,0.0,0.0,33,0.00,,,0.00,WUHU216HW,2013-05-16 21:23:00,
2013-05-16 17:28:00,79.2,45.9,29.97,North,0,0.0,0.0,31,0.00,,,0.00,WUHU216HW,2013-05-16 21:28:00,
2013-05-16 17:33:00,78.8,45.6,29.97,North,0,0.0,0.0,31,0.00,,,0.00,WUHU216HW,2013-05-16 21:33:00,
2013-05-16 17:38:00,78.8,41.7,29.97,North,0,0.0,0.0,27,0.00,,,0.00,WUHU216HW,2013-05-16 21:38:00,
2013-05-16 17:44:00,78.8,37.5,29.97,North,0,0.0,0.0,23,0.00,,,0.00,WUHU216HW,2013-05-16 21:44:00,
2013-05-16 17:49:00,78.5,35.1,29.97,North,0,0.0,0.0,21,0.00,,,0.00,WUHU216HW,2013-05-16 21:49:00,
2013-05-16 17:54:00,78.3,30.6,29.97,North,0,0.0,0.0,18,0.00,,,0.00,WUHU216HW,2013-05-16 21:54:00,
2013-05-16 17:59:00,78.3,22.2,29.97,North,0,0.0,0.0,13,0.00,,,0.00,WUHU216HW,2013-05-16 21:59:00,
2013-05-16 18:04:00,78.8,17.6,29.97,North,0,0.0,0.0,8,0.00,,,0.00,WUHU216HW,2013-05-16 22:04:00,
2013-05-16 18:09:00,79.7,21.7,29.97,North,0,0.0,0.0,12,0.00,,,0.00,WUHU216HW,2013-05-16 22:09:00,
2013-05-16 18:14:00,80.3,34.0,29.97,North,0,0.0,0.0,19,0.00,,,0.00,WUHU216HW,2013-05-16 22:14:00,
2013-05-16 18:19:00,80.6,38.1,29.97,North,0,0.0,0.0,22,0.00,,,0.00,WUHU216HW,2013-05-16 22:19:00,
2013-05-16 18:25:00,81.0,42.6,29.97,North,0,0.0,0.0,26,0.00,,,0.00,WUHU216HW,2013-05-16 22:25:00,
2013-05-16 18:30:00,81.2,46.9,29.97,North,0,0.0,0.0,30,0.00,,,0.00,WUHU216HW,2013-05-16 22:30:00,
2013-05-16 18:35:00,81.0,47.5,29.97,North,0,0.0,0.0,31,0.00,,,0.00,WUHU216HW,2013-05-16 22:35:00,
2013-05-16 18:40:00,80.3,46.1,29.97,North,0,0.0,0.0,30,0.00,,,0.00,WUHU216HW,2013-05-16 22:40:00,
2013-05-16 18:45:00,79.6,41.3,29.97,North,0,0.0,0.0,26,0.00,,,0.00,WUHU216HW,2013-05-16 22:45:00,
2013-05-16 18:50:00,79.2,37.8,29.97,North,0,0.0,0.0,23,0.00,,,0.00,WUHU216HW,2013-05-16 22:50:00,
2013-05-16 18:55:00,78.8,35.5,29.97,North,0,0.0,0.0,21,0.00,,,0.00,WUHU216HW,2013-05-16 22:55:00,
2013-05-16 19:00:00,78.3,30.6,29.97,North,0,0.0,0.0,18,0.00,,,0.00,WUHU216HW,2013-05-16 23:00:00,
2013-05-16 19:06:00,78.1,25.5,29.97,North,0,0.0,0.0,15,0.00,,,0.00,WUHU216HW,2013-05-16 23:06:00,
2013-05-16 19:11:00,77.8,20.3,29.97,North,0,0.0,0.0,12,0.00,,,0.00,WUHU216HW,2013-05-16 23:11:00,
2013-05-16 19:16:00,77.6,16.7,29.97,North,0,0.0,0.0,10,0.00,,,0.00,WUHU216HW,2013-05-16 23:16:00,
2013-05-16 19:21:00,77.2,16.5,29.97,North,0,0.0,0.0,8,0.00,,,0.00,WUHU216HW,2013-05-16 23:21:00,
2013-05-16 19:26:00,77.0,16.4,29.98,North,0,0.0,0.0,10,0.00,,,0.00,WUHU216HW,2013-05-16 23:26:00,
2013-05-16 19:31:00,76.9,16.2,29.98,North,0,0.0,0.0,6,0.00,,,0.00,WUHU216HW,2013-05-16 23:31:00,
2013-05-16 19:36:00,76.5,15.9,29.99,North,0,0.0,0.0,3,0.00,,,0.00,WUHU216HW,2013-05-16 23:36:00,
2013-05-16 19:41:00,76.3,15.9,29.99,North,0,0.0,0.0,2,0.00,,,0.00,WUHU216HW,2013-05-16 23:41:00,
2013-05-16 19:47:00,76.0,15.5,29.99,North,0,0.0,0.0,1,0.00,,,0.00,WUHU216HW,2013-05-16 23:47:00,
2013-05-16 19:52:00,76.0,15.5,29.99,North,0,0.0,0.0,1,0.00,,,0.00,WUHU216HW,2013-05-16 23:52:00,
2013-05-16 19:57:00,75.8,15.4,29.99,North,0,0.0,0.0,1,0.00,,,0.00,WUHU216HW,2013-05-16 23:57:00,
2013-05-16 20:02:00,75.4,15.1,29.99,North,0,0.0,0.0,1,0.00,,,0.00,WUHU216HW,2013-05-17 00:02:00,
2013-05-16 20:07:00,75.2,14.9,29.99,North,0,0.0,0.0,1,0.00,,,0.00,WUHU216HW,2013-05-17 00:07:00,
2013-05-16 20:12:00,75.2,14.9,29.99,North,0,0.0,0.0,1,0.00,,,0.00,WUHU216HW,2013-05-17 00:12:00,
2013-05-16 20:17:00,75.1,14.9,29.99,North,0,0.0,0.0,1,0.00,,,0.00,WUHU216HW,2013-05-17 00:17:00,
2013-05-16 20:22:00,75.1,14.9,29.99,North,0,0.0,0.0,1,0.00,,,0.00,WUHU216HW,2013-05-17 00:22:00,
2013-05-16 20:28:00,75.1,14.9,29.99,North,0,0.0,0.0,1,0.00,,,0.00,WUHU216HW,2013-05-17 00:28:00,
2013-05-16 20:33:00,74.9,14.7,29.99,North,0,0.0,0.0,1,0.00,,,0.00,WUHU216HW,2013-05-17 00:33:00,
2013-05-16 20:38:00,74.9,14.7,30.00,North,0,0.0,0.0,1,0.00,,,0.00,WUHU216HW,2013-05-17 00:38:00,
2013-05-16 20:43:00,74.7,14.6,30.00,North,0,0.0,0.0,1,0.00,,,0.00,WUHU216HW,2013-05-17 00:43:00,
2013-05-16 20:48:00,74.5,14.4,30.00,North,0,0.0,0.0,1,0.00,,,0.00,WUHU216HW,2013-05-17 00:48:00,
2013-05-16 20:53:00,74.5,14.4,30.00,North,0,0.0,0.0,1,0.00,,,0.00,WUHU216HW,2013-05-17 00:53:00,
2013-05-16 20:58:00,74.5,14.4,30.00,North,0,0.0,0.0,1,0.00,,,0.00,WUHU216HW,2013-05-17 00:58:00,
2013-05-16 21:03:00,74.5,14.4,30.00,North,0,0.0,0.0,1,0.00,,,0.00,WUHU216HW,2013-05-17 01:03:00,
2013-05-16 21:09:00,74.5,14.4,30.00,North,0,0.0,0.0,1,0.00,,,0.00,WUHU216HW,2013-05-17 01:09:00,
2013-05-16 21:14:00,74.5,14.4,30.01,North,0,0.0,0.0,1,0.00,,,0.00,WUHU216HW,2013-05-17 01:14:00,
2013-05-16 21:19:00,74.5,14.4,30.01,North,0,0.0,0.0,1,0.00,,,0.00,WUHU216HW,2013-05-17 01:19:00,
2013-05-16 21:24:00,74.5,14.4,30.01,North,0,0.0,0.0,1,0.00,,,0.00,WUHU216HW,2013-05-17 01:24:00,
2013-05-16 21:29:00,74.5,14.4,30.02,North,0,0.0,0.0,1,0.00,,,0.00,WUHU216HW,2013-05-17 01:29:00,
2013-05-16 21:34:00,74.7,14.6,30.02,North,0,0.0,0.0,1,0.00,,,0.00,WUHU216HW,2013-05-17 01:34:00,
2013-05-16 21:38:00,74.7,14.6,30.02,North,0,0.0,0.0,1,0.00,,,0.00,WUHU216HW,2013-05-17 01:38:00,
2013-05-16 21:39:00,74.7,14.6,30.02,North,0,0.0,0.0,1,0.00,,,0.00,WUHU216HW,2013-05-17 01:39:00,
2013-05-16 21:44:00,74.7,14.6,30.02,North,0,0.0,0.0,1,0.00,,,0.00,WUHU216HW,2013-05-17 01:44:00,
2013-05-16 22:00:00,75.2,14.9,30.03,North,0,0.0,0.0,1,0.00,,,0.00,WUHU216HW,2013-05-17 02:00:00,
2013-05-16 22:05:00,75.2,14.9,30.03,North,0,0.0,0.0,1,0.00,,,0.00,WUHU216HW,2013-05-17 02:05:00,
2013-05-16 22:30:00,75.2,14.9,30.03,North,0,0.0,0.0,1,0.00,,,0.00,WUHU216HW,2013-05-17 02:30:00,
2013-05-16 22:35:00,75.2,14.9,30.03,North,0,0.0,0.0,1,0.00,,,0.00,WUHU216HW,2013-05-17 02:35:00,
2013-05-16 22:40:00,75.4,15.1,30.03,North,0,0.0,0.0,1,0.00,,,0.00,WUHU216HW,2013-05-17 02:40:00,
2013-05-16 22:45:00,75.2,14.9,30.03,North,0,0.0,0.0,1,0.00,,,0.00,WUHU216HW,2013-05-17 02:45:00,
2013-05-16 22:50:00,75.2,14.9,30.03,North,0,0.0,0.0,1,0.00,,,0.00,WUHU216HW,2013-05-17 02:50:00,
2013-05-16 22:56:00,75.2,14.9,30.04,North,0,0.0,0.0,1,0.00,,,0.00,WUHU216HW,2013-05-17 02:56:00,
2013-05-16 23:01:00,75.4,15.1,30.04,North,0,0.0,0.0,1,0.00,,,0.00,WUHU216HW,2013-05-17 03:01:00,
2013-05-16 23:06:00,75.4,15.1,30.03,North,0,0.0,0.0,1,0.00,,,0.00,WUHU216HW,2013-05-17 03:06:00,
2013-05-16 23:11:00,75.4,15.1,30.03,North,0,0.0,0.0,1,0.00,,,0.00,WUHU216HW,2013-05-17 03:11:00,
2013-05-16 23:16:00,75.6,15.2,30.03,North,0,0.0,0.0,1,0.00,,,0.00,WUHU216HW,2013-05-17 03:16:00,
2013-05-16 23:21:00,75.6,15.2,30.03,North,0,0.0,0.0,1,0.00,,,0.00,WUHU216HW,2013-05-17 03:21:00,
2013-05-16 23:26:00,75.8,15.4,30.03,North,0,0.0,0.0,1,0.00,,,0.00,WUHU216HW,2013-05-17 03:26:00,
2013-05-16 23:31:00,76.0,15.5,30.03,North,0,0.0,0.0,1,0.00,,,0.00,WUHU216HW,2013-05-17 03:31:00,
2013-05-16 23:36:00,76.0,15.5,30.03,North,0,0.0,0.0,1,0.00,,,0.00,WUHU216HW,2013-05-17 03:36:00,
2013-05-16 23:42:00,76.0,15.5,30.03,North,0,0.0,0.0,1,0.00,,,0.00,WUHU216HW,2013-05-17 03:42:00,
2013-05-16 23:47:00,76.0,15.5,30.03,North,0,0.0,0.0,1,0.00,,,0.00,WUHU216HW,2013-05-17 03:47:00,
2013-05-16 23:52:00,76.0,15.5,30.03,North,0,0.0,0.0,1,0.00,,,0.00,WUHU216HW,2013-05-17 03:52:00,
2013-05-16 23:57:00,76.1,15.7,30.03,North,0,0.0,0.0,1,0.00,,,0.00,WUHU216HW,2013-05-17 03:57:00,